Location: Chimay
(50.0486°N, 4.3171°E)
Time: 02:57:32
(UTC+00:00)

Cosmos 405 Rocket - Pass Details

Date: 08 August 2020
Orbit: 490 x 553 km, 81.3° (Epoch: 25 September)

Event Time Altitude Azimuth Distance (km) Brightness Sun altitude
Exits shadow 20:48:10 22° 120° (ESE) 1,129 3.8 -13.2°
Maximum altitude 20:49:17 25° 92° (E) 1,024 3.8 -13.3°
Drops below altitude 10° 20:52:23 10° 35° (NE) 1,708 5.5 -13.6°
Sets 20:54:46 0° 23° (NNE) 2,606 6.6 -13.9°
